Northport, AL

11:14 AM CDT on September 29, 2016 (GMT -0500)
Tuscaloosa Municipal

Weather History for KTCL - January, 2014

Change the Weather History Date:

Friday, January 31, 2014

  Actual Average Record
Temperature  
Mean Temperature 42 °F 46 °F  
Max Temperature 61 °F 57 °F 80 °F (1950)
Min Temperature 23 °F 34 °F 9 °F (1966)
Degree Days  
Heating Degree Days 23 19  
Month to date heating degree days 828 633  
Since 1 July heating degree days 1832 1632  
Moisture  
Dew Point 21 °F    
Average Humidity 54    
Maximum Humidity 88    
Minimum Humidity 20    
Precipitation  
Precipitation 0.00 in 0.20 in 1.70 in (1985)
Month to date precipitation 2.09 5.35  
Year to date precipitation 2.09 5.35  
Sea Level Pressure  
Sea Level Pressure 30.16 in    
Wind  
Wind Speed 4 mph (South)    
Max Wind Speed 10 mph    
Max Gust Speed 14 mph    
Visibility 10 miles    
Events      
T = Trace of Precipitation, MM = Missing Value Source: NWS Daily Summary

Daily Weather History Graph

Daily Weather History Graph

Search for Another Location

Airport or City:

Trip Planner

Search our weather history database for the weather conditions in past years. The results will help you decide how hot, cold, wet, or windy it might be!

Date:

Astronomy

Jan. 31, 2014 Rise Set
Actual Time 6:46 AM CST 5:21 PM CST
Civil Twilight 6:20 AM CST 5:47 PM CST
Nautical Twilight 5:51 AM CST 6:17 PM CST
Astronomical Twilight 5:21 AM CST 6:46 PM CST
Moon 7:01 AM CST (1/31) 6:38 PM CST (1/31)
Length of Visible Light 11h 26m
Length of Day
10h 34m
New Moon, 1% of the Moon is Illuminated
Jan 31
New Moon
Feb 6
First Quarter
Feb 14
Full
Feb 22
Last Quarter
Mar 1
New

Hourly Weather History & Observations

Time (CST) Temp. Windchill Dew Point Humidity Pressure Visibility Wind Dir Wind Speed Gust Speed Precip Events Conditions
12:53 AM 34.0 °F 28.8 °F 19.9 °F 56% 30.18 in 10.0 mi SE 5.8 mph - N/A   Clear
1:53 AM 30.9 °F 26.2 °F 19.9 °F 64% 30.18 in 10.0 mi SE 4.6 mph - N/A   Clear
2:53 AM 30.0 °F - 21.0 °F 69% 30.18 in 10.0 mi Calm Calm - N/A   Clear
3:53 AM 26.1 °F - 19.9 °F 78% 30.20 in 10.0 mi Calm Calm - N/A   Clear
4:53 AM 27.0 °F - 19.9 °F 75% 30.21 in 10.0 mi Calm Calm - N/A   Clear
5:53 AM 23.0 °F - 19.0 °F 85% 30.22 in 10.0 mi Calm Calm - N/A   Clear
6:53 AM 25.0 °F - 19.9 °F 81% 30.23 in 9.0 mi Calm Calm - N/A   Clear
7:53 AM 33.1 °F 25.5 °F 26.1 °F 75% 30.23 in 8.0 mi SSE 9.2 mph - N/A   Clear
8:53 AM 37.9 °F 34.4 °F 26.1 °F 62% 30.23 in 10.0 mi SE 4.6 mph - N/A   Clear
9:53 AM 43.0 °F 41.3 °F 26.1 °F 51% 30.23 in 10.0 mi West 3.5 mph - N/A   Clear
10:53 AM 48.9 °F - 23.0 °F 36% 30.22 in 10.0 mi Variable 6.9 mph - N/A   Clear
11:53 AM 54.0 °F - 23.0 °F 30% 30.18 in 10.0 mi South 8.1 mph - N/A   Clear
12:53 PM 57.0 °F - 23.0 °F 27% 30.14 in 10.0 mi South 6.9 mph - N/A   Clear
1:53 PM 59.0 °F - 23.0 °F 25% 30.11 in 10.0 mi Variable 5.8 mph - N/A   Clear
2:53 PM 60.1 °F - 19.9 °F 21% 30.10 in 10.0 mi SSW 5.8 mph - N/A   Clear
3:53 PM 60.1 °F - 19.0 °F 20% 30.10 in 10.0 mi South 5.8 mph - N/A   Clear
4:53 PM 57.0 °F - 19.0 °F 23% 30.10 in 10.0 mi SSW 4.6 mph - N/A   Clear
5:53 PM 51.1 °F - 18.0 °F 27% 30.10 in 10.0 mi South 6.9 mph - N/A   Clear
6:53 PM 48.9 °F - 16.0 °F 27% 30.11 in 10.0 mi South 5.8 mph - N/A   Clear
7:53 PM 46.9 °F - 17.1 °F 30% 30.11 in 10.0 mi Calm Calm - N/A   Clear
8:53 PM 39.0 °F - 23.0 °F 53% 30.12 in 10.0 mi Calm Calm - N/A   Clear
9:53 PM 34.0 °F - 23.0 °F 64% 30.11 in 10.0 mi Calm Calm - N/A   Clear
10:53 PM 34.0 °F - 24.1 °F 67% 30.10 in 10.0 mi Calm Calm - N/A   Clear
11:53 PM 32.0 °F - 24.1 °F 73% 30.11 in 10.0 mi Calm Calm - N/A   Clear